Regional Weather Roundup
Issued by NWS Albany, NY

Home | Current Version | Previous Version | Text Only | Print | Product List | Glossary On
Versions: 1 2 3 4 5 6 7 8 9 10 11 12 13 14 15 16 17 18 19 20 21 22 23 24 25 26 27
000
ASUS41 KALY 240510
RWRALY

NEW YORK STATE HOURLY WEATHER ROUNDUP
NATIONAL WEATHER SERVICE ALBANY NY
100 AM EDT SAT SEP 24 2016

NOTE: "FAIR" INDICATES FEW OR NO CLOUDS BELOW 12,000 FEET WITH NO
SIGNIFICANT WEATHER AND/OR NO OBSTRUCTIONS TO VISIBILITY.

NYZ032-033-038>043-046>054-057>066-NYZ062>081-082-084-240600-
EAST


CITY           SKY/WX    TMP DP  RH WIND       PRES   REMARKS
ALBANY         CLOUDY    55  49  80 N7        30.14R
GLENS FALLS    CLEAR     50  45  83 N5        30.14S
POUGHKEEPSIE   CLOUDY    58  49  72 N12       30.08R
NEWBURGH       MOCLDY    59  52  77 E12       30.10R
MONTGOMERY     CLOUDY    60  50  69 NE12      30.09R
WHITE PLAINS   CLOUDY    65  56  72 N13       30.02R
ISLIP          CLOUDY    69  63  81 N9        29.98R
NEW YORK CITY  HVY RAIN  67  63  87 N15       30.00R FOG
CENTRAL PARK   HVY RAIN  64  61  90 VRB6      30.06R FOG
$$

NYZ005>009-017-018-044>046-055-056-240600-
CENTRAL


CITY           SKY/WX    TMP DP  RH WIND       PRES   REMARKS
FULTON         CLEAR     52  48  86 NE7       30.16F
SYRACUSE       PTCLDY    49  47  93 N3        30.16S
ROME           CLEAR     48  46  93 CALM      30.17R
ELMIRA         CLOUDY    58  45  62 N6        30.14S
BINGHAMTON     CLOUDY    53  52  96 NE13      30.13S
MONTICELLO     CLOUDY    61  55  82 E3        30.09R
$$

NYZ026>034-041>043-087-240600-
NORTH


CITY           SKY/WX    TMP DP  RH WIND       PRES   REMARKS
WATERTOWN      CLEAR     41  39  93 SE3       30.17F
FORT DRUM      NOT AVBL
OGDENSBURG     FAIR      47  45  91 CALM      30.16F
MASSENA        MOCLDY    49  43  80 CALM      30.16F
SARANAC LAKE   PTCLDY    42  40  92 CALM      30.13F FOG
PLATTSBURGH    PTCLDY    50  44  80 NW6       30.14S
$$

NYZ001>004-010>016-019>021-085-240600-
WEST


CITY           SKY/WX    TMP DP  RH WIND       PRES   REMARKS
NIAGARA FALLS  CLOUDY    59  51  75 NE6       30.17S
BUFFALO        MOCLDY    59  50  72 NE9       30.16F
DUNKIRK        CLOUDY    58  53  84 E12       30.16S
JAMESTOWN      CLOUDY    55  52  88 NE9G16    30.15S
WELLSVILLE     CLOUDY    53  51  93 NE8       30.19R FOG
ROCHESTER      CLOUDY    60  50  69 NE10      30.17F
PENN YAN       CLOUDY    57  45  64 CALM      30.17F
$$

             KEY
       WCI = WIND CHILL INDEX
       VSB = VISIBILITY
       HX  = HEAT INDEX
$$




USA.gov is the U.S. government's official web portal to all federal, state and local government web resources and services.